TimeMST,TemperatureF,Dew PointF,Humidity,Sea Level PressureIn,VisibilityMPH,Wind Direction,Wind SpeedMPH,Gust SpeedMPH,PrecipitationIn,Events,Conditions,WindDirDegrees,DateUTC
12:53 AM,35.1,19.9,54,30.29,10.0,SW,10.4,-,N/A,,Mostly Cloudy,230,2013-03-02 07:53:00
1:53 AM,35.6,19.4,52,30.27,10.0,SW,10.4,-,N/A,,Mostly Cloudy,220,2013-03-02 08:53:00
2:53 AM,34.0,19.0,54,30.28,10.0,SW,9.2,-,N/A,,Scattered Clouds,230,2013-03-02 09:53:00
3:53 AM,30.9,18.0,59,30.29,10.0,South,5.8,-,N/A,,Scattered Clouds,190,2013-03-02 10:53:00
4:53 AM,28.4,17.6,64,30.27,10.0,South,8.1,-,N/A,,Scattered Clouds,180,2013-03-02 11:53:00
5:53 AM,30.9,18.0,59,30.29,10.0,SSW,8.1,-,N/A,,Scattered Clouds,210,2013-03-02 12:53:00
6:53 AM,33.1,18.0,54,30.30,10.0,SSW,10.4,-,N/A,,Mostly Cloudy,210,2013-03-02 13:53:00
7:53 AM,36.0,19.9,52,30.29,10.0,SW,12.7,-,N/A,,Mostly Cloudy,220,2013-03-02 14:53:00
8:53 AM,41.0,21.0,45,30.27,10.0,SSW,10.4,-,N/A,,Mostly Cloudy,210,2013-03-02 15:53:00
9:53 AM,42.1,23.0,47,30.26,10.0,SSW,8.1,-,N/A,,Mostly Cloudy,200,2013-03-02 16:53:00
10:53 AM,46.0,24.1,42,30.25,10.0,SSW,5.8,-,N/A,,Mostly Cloudy,210,2013-03-02 17:53:00
11:53 AM,48.0,25.0,41,30.21,10.0,South,5.8,-,N/A,,Scattered Clouds,190,2013-03-02 18:53:00
12:53 PM,50.0,27.0,41,30.17,10.0,SE,3.5,-,N/A,,Scattered Clouds,140,2013-03-02 19:53:00
1:53 PM,48.0,28.0,46,30.14,10.0,SE,9.2,-,N/A,,Scattered Clouds,140,2013-03-02 20:53:00
2:53 PM,48.0,28.9,48,30.13,10.0,SSE,10.4,-,N/A,,Mostly Cloudy,160,2013-03-02 21:53:00
3:53 PM,48.0,28.9,48,30.13,10.0,SSE,8.1,-,N/A,,Mostly Cloudy,150,2013-03-02 22:53:00
4:53 PM,43.0,30.0,60,30.16,10.0,SSE,10.4,-,N/A,,Mostly Cloudy,160,2013-03-02 23:53:00
5:53 PM,41.0,26.6,57,30.15,10.0,SSE,10.4,-,N/A,,Mostly Cloudy,160,2013-03-03 00:53:00
6:53 PM,41.0,24.1,51,30.14,10.0,South,10.4,-,N/A,,Mostly Cloudy,180,2013-03-03 01:53:00
7:53 PM,39.0,24.1,55,30.12,10.0,SSW,5.8,-,N/A,,Mostly Cloudy,200,2013-03-03 02:53:00
8:53 PM,36.0,26.1,67,30.10,10.0,South,8.1,-,N/A,,Mostly Cloudy,190,2013-03-03 03:53:00
9:53 PM,44.1,24.1,45,30.05,10.0,South,9.2,-,N/A,,Mostly Cloudy,190,2013-03-03 04:53:00
10:53 PM,39.0,26.1,60,30.03,10.0,South,11.5,-,N/A,,Overcast,190,2013-03-03 05:53:00
11:53 PM,39.0,25.0,57,29.98,10.0,South,10.4,-,N/A,,Overcast,170,2013-03-03 06:53:00